Location: Seale
(32.2974°N, 85.1688°W)
Time: 20:16:35
(UTC+00:00)

X-37B - Visible Passes

Search period start: 22 January 2021 00:00
Search period end: 01 February 2021 00:00
Orbit: 385 x 390 km, 45.0° (Epoch: 20 January)

Date Brightness Start Highest point End Pass type
(mag) Time Alt. Az. Time Alt. Az. Time Alt. Az.
22 Jan 3.1 00:18:36 10° NW 00:20:05 13° NNW 00:21:06 11° N visible
28 Jan 3.5 00:56:13 10° NNW 00:56:18 10° NNW 00:56:18 10° NNW visible
28 Jan 2.9 23:58:24 10° N 23:59:48 12° NNE 00:00:48 11° NE visible
30 Jan 2.1 00:35:44 10° NW 00:37:43 24° N 00:37:43 24° N visible
30 Jan 2.4 23:37:44 10° NNW 23:39:58 17° NNE 23:42:11 10° ENE visible
31 Jan 3.2 01:13:41 10° WNW 01:14:47 20° WNW 01:14:47 20° WNW visible
